Time,TemperatureF,DewpointF,PressureIn,WindDirection,WindDirectionDegrees,WindSpeedMPH,WindSpeedGustMPH,Humidity,HourlyPrecipIn,Conditions,Clouds,dailyrainin,SoftwareType,DateUTC
2013-02-21 00:00:00,20.9,16.3,30.24,East,88,0.0,0.0,82,0.00,,,0.00,Wunderground v.1.15,2013-02-21 05:00:00,
2013-02-21 00:02:00,20.9,16.3,30.24,East,88,0.0,0.0,82,0.00,,,0.00,Wunderground v.1.15,2013-02-21 05:02:00,
2013-02-21 00:03:00,20.9,16.3,30.24,East,88,0.0,0.0,82,0.00,,,0.00,Wunderground v.1.15,2013-02-21 05:03:00,
2013-02-21 00:08:00,21.0,16.4,30.24,East,88,0.0,0.0,82,0.00,,,0.00,Wunderground v.1.15,2013-02-21 05:08:00,
2013-02-21 00:11:00,20.9,16.0,30.24,East,88,0.0,0.0,81,0.00,,,0.00,Wunderground v.1.15,2013-02-21 05:11:00,
2013-02-21 00:16:00,21.0,16.4,30.24,East,88,0.0,0.0,82,0.00,,,0.00,Wunderground v.1.15,2013-02-21 05:16:00,
2013-02-21 00:21:00,21.0,16.4,30.24,ESE,106,0.0,0.0,82,0.00,,,0.00,Wunderground v.1.15,2013-02-21 05:21:00,
2013-02-21 00:26:00,21.1,16.5,30.24,ESE,106,0.0,0.0,82,0.00,,,0.00,Wunderground v.1.15,2013-02-21 05:26:00,
2013-02-21 00:31:00,21.1,16.5,30.25,NE,49,0.0,1.0,82,0.00,,,0.00,Wunderground v.1.15,2013-02-21 05:31:00,
2013-02-21 00:37:00,21.0,16.9,30.25,East,94,0.0,1.0,84,0.00,,,0.00,Wunderground v.1.15,2013-02-21 05:37:00,
2013-02-21 00:42:00,21.0,16.9,30.25,East,94,0.0,0.0,84,0.00,,,0.00,Wunderground v.1.15,2013-02-21 05:42:00,
2013-02-21 00:47:00,20.9,17.1,30.25,NW,313,0.0,0.0,85,0.00,,,0.00,Wunderground v.1.15,2013-02-21 05:47:00,
2013-02-21 00:52:00,20.8,17.0,30.25,East,98,0.0,1.0,85,0.00,,,0.00,Wunderground v.1.15,2013-02-21 05:52:00,
2013-02-21 00:58:00,20.7,16.6,30.25,East,98,0.0,1.0,84,0.00,,,0.00,Wunderground v.1.15,2013-02-21 05:58:00,
2013-02-21 01:03:00,20.7,16.6,30.25,East,98,0.0,0.0,84,0.00,,,0.00,Wunderground v.1.15,2013-02-21 06:03:00,
2013-02-21 01:08:00,20.7,16.6,30.25,East,98,0.0,0.0,84,0.00,,,0.00,Wunderground v.1.15,2013-02-21 06:08:00,
2013-02-21 01:14:00,20.7,16.6,30.25,East,98,0.0,0.0,84,0.00,,,0.00,Wunderground v.1.15,2013-02-21 06:14:00,
2013-02-21 01:19:00,20.7,16.6,30.24,East,98,0.0,0.0,84,0.00,,,0.00,Wunderground v.1.15,2013-02-21 06:19:00,
2013-02-21 01:24:00,20.7,16.6,30.24,East,95,0.0,2.0,84,0.00,,,0.00,Wunderground v.1.15,2013-02-21 06:24:00,
2013-02-21 01:29:00,20.8,16.5,30.25,NNE,15,0.0,2.0,83,0.00,,,0.00,Wunderground v.1.15,2013-02-21 06:29:00,
2013-02-21 01:34:00,20.8,16.5,30.25,NNE,31,0.0,0.0,83,0.00,,,0.00,Wunderground v.1.15,2013-02-21 06:34:00,
2013-02-21 01:40:00,20.8,16.5,30.25,SSE,153,0.0,0.0,83,0.00,,,0.00,Wunderground v.1.15,2013-02-21 06:40:00,
2013-02-21 01:45:00,20.8,16.2,30.25,ESE,102,0.0,1.0,82,0.00,,,0.00,Wunderground v.1.15,2013-02-21 06:45:00,
2013-02-21 01:50:00,20.8,15.9,30.25,SE,142,0.0,0.0,81,0.00,,,0.00,Wunderground v.1.15,2013-02-21 06:50:00,
2013-02-21 01:56:00,20.8,15.9,30.25,SE,142,0.0,0.0,81,0.00,,,0.00,Wunderground v.1.15,2013-02-21 06:56:00,
2013-02-21 02:02:00,20.8,15.9,30.25,SE,142,0.0,0.0,81,0.00,,,0.00,Wunderground v.1.15,2013-02-21 07:02:00,
2013-02-21 02:07:00,20.7,16.1,30.25,SE,142,0.0,1.0,82,0.00,,,0.00,Wunderground v.1.15,2013-02-21 07:07:00,
2013-02-21 02:12:00,20.7,16.1,30.25,East,96,0.0,0.0,82,0.00,,,0.00,Wunderground v.1.15,2013-02-21 07:12:00,
2013-02-21 02:18:00,20.7,16.1,30.25,East,86,0.0,3.0,82,0.00,,,0.00,Wunderground v.1.15,2013-02-21 07:18:00,
2013-02-21 02:23:00,20.7,15.8,30.25,SE,143,1.0,2.0,81,0.00,,,0.00,Wunderground v.1.15,2013-02-21 07:23:00,
2013-02-21 02:28:00,20.7,15.8,30.25,SSE,147,1.0,2.0,81,0.00,,,0.00,Wunderground v.1.15,2013-02-21 07:28:00,
2013-02-21 02:33:00,20.7,15.8,30.25,ESE,112,0.0,1.0,81,0.00,,,0.00,Wunderground v.1.15,2013-02-21 07:33:00,
2013-02-21 02:38:00,20.7,15.5,30.25,ESE,112,0.0,1.0,80,0.00,,,0.00,Wunderground v.1.15,2013-02-21 07:38:00,
2013-02-21 02:44:00,20.8,15.9,30.25,ESE,112,0.0,0.0,81,0.00,,,0.00,Wunderground v.1.15,2013-02-21 07:44:00,
2013-02-21 02:49:00,20.8,15.6,30.25,ESE,111,0.0,2.0,80,0.00,,,0.00,Wunderground v.1.15,2013-02-21 07:49:00,
2013-02-21 02:54:00,20.8,15.9,30.25,East,99,0.0,1.0,81,0.00,,,0.00,Wunderground v.1.15,2013-02-21 07:54:00,
2013-02-21 02:59:00,20.9,15.7,30.25,SE,126,0.0,1.0,80,0.00,,,0.00,Wunderground v.1.15,2013-02-21 07:59:00,
2013-02-21 03:05:00,20.8,15.3,30.25,SE,134,0.0,1.0,79,0.00,,,0.00,Wunderground v.1.15,2013-02-21 08:05:00,
2013-02-21 03:10:00,20.8,15.0,30.25,SE,144,1.0,1.0,78,0.00,,,0.00,Wunderground v.1.15,2013-02-21 08:10:00,
2013-02-21 03:15:00,20.9,15.1,30.25,ENE,71,0.0,1.0,78,0.00,,,0.00,Wunderground v.1.15,2013-02-21 08:15:00,
2013-02-21 03:21:00,20.9,15.4,30.25,ESE,123,0.0,2.0,79,0.00,,,0.00,Wunderground v.1.15,2013-02-21 08:21:00,
2013-02-21 03:26:00,20.9,14.8,30.25,SSE,161,0.0,3.0,77,0.00,,,0.00,Wunderground v.1.15,2013-02-21 08:26:00,
2013-02-21 03:31:00,20.8,14.4,30.26,SE,137,0.0,0.0,76,0.00,,,0.00,Wunderground v.1.15,2013-02-21 08:31:00,
2013-02-21 03:37:00,20.8,14.4,30.25,SE,137,0.0,1.0,76,0.00,,,0.00,Wunderground v.1.15,2013-02-21 08:37:00,
2013-02-21 03:42:00,20.8,14.4,30.25,SE,124,0.0,1.0,76,0.00,,,0.00,Wunderground v.1.15,2013-02-21 08:42:00,
2013-02-21 03:47:00,20.8,14.4,30.25,SE,124,0.0,1.0,76,0.00,,,0.00,Wunderground v.1.15,2013-02-21 08:47:00,
2013-02-21 03:52:00,20.8,14.1,30.25,ESE,118,0.0,1.0,75,0.00,,,0.00,Wunderground v.1.15,2013-02-21 08:52:00,
2013-02-21 03:58:00,20.9,14.5,30.25,SE,134,0.0,3.0,76,0.00,,,0.00,Wunderground v.1.15,2013-02-21 08:58:00,
2013-02-21 04:03:00,20.9,14.2,30.25,SE,144,0.0,0.0,75,0.00,,,0.00,Wunderground v.1.15,2013-02-21 09:03:00,
2013-02-21 04:09:00,20.9,14.5,30.25,SE,144,0.0,0.0,76,0.00,,,0.00,Wunderground v.1.15,2013-02-21 09:09:00,
2013-02-21 04:14:00,20.9,14.5,30.25,SE,144,0.0,1.0,76,0.00,,,0.00,Wunderground v.1.15,2013-02-21 09:14:00,
2013-02-21 04:19:00,20.9,14.5,30.25,ESE,116,0.0,2.0,76,0.00,,,0.00,Wunderground v.1.15,2013-02-21 09:19:00,
2013-02-21 04:24:00,20.9,14.2,30.25,ESE,121,0.0,0.0,75,0.00,,,0.00,Wunderground v.1.15,2013-02-21 09:24:00,
2013-02-21 04:30:00,21.0,14.6,30.25,SSE,152,0.0,0.0,76,0.00,,,0.00,Wunderground v.1.15,2013-02-21 09:30:00,
2013-02-21 04:35:00,21.0,14.6,30.25,ENE,69,0.0,0.0,76,0.00,,,0.00,Wunderground v.1.15,2013-02-21 09:35:00,
2013-02-21 04:40:00,21.1,14.7,30.26,SE,128,0.0,0.0,76,0.00,,,0.00,Wunderground v.1.15,2013-02-21 09:40:00,
2013-02-21 04:45:00,21.1,14.4,30.26,SE,128,0.0,1.0,75,0.00,,,0.00,Wunderground v.1.15,2013-02-21 09:45:00,
2013-02-21 04:51:00,21.1,14.1,30.26,ESE,114,0.0,3.0,74,0.00,,,0.00,Wunderground v.1.15,2013-02-21 09:51:00,
2013-02-21 04:56:00,21.1,14.4,30.26,ESE,114,0.0,3.0,75,0.00,,,0.00,Wunderground v.1.15,2013-02-21 09:56:00,
2013-02-21 05:02:00,21.2,14.5,30.26,SSE,152,0.0,0.0,75,0.00,,,0.00,Wunderground v.1.15,2013-02-21 10:02:00,
2013-02-21 05:07:00,21.2,14.8,30.27,ESE,117,0.0,2.0,76,0.00,,,0.00,Wunderground v.1.15,2013-02-21 10:07:00,
2013-02-21 05:13:00,21.3,14.9,30.27,ESE,117,0.0,0.0,76,0.00,,,0.00,Wunderground v.1.15,2013-02-21 10:13:00,
2013-02-21 05:18:00,21.3,14.6,30.27,ESE,117,0.0,0.0,75,0.00,,,0.00,Wunderground v.1.15,2013-02-21 10:18:00,
2013-02-21 05:23:00,21.3,14.9,30.27,ESE,117,0.0,0.0,76,0.00,,,0.00,Wunderground v.1.15,2013-02-21 10:23:00,
2013-02-21 05:29:00,21.3,14.9,30.27,ESE,111,0.0,0.0,76,0.00,,,0.00,Wunderground v.1.15,2013-02-21 10:29:00,
2013-02-21 05:34:00,21.2,14.8,30.27,ESE,111,0.0,0.0,76,0.00,,,0.00,Wunderground v.1.15,2013-02-21 10:34:00,
2013-02-21 05:39:00,21.2,14.8,30.27,ESE,111,0.0,0.0,76,0.00,,,0.00,Wunderground v.1.15,2013-02-21 10:39:00,
2013-02-21 05:44:00,21.2,15.1,30.28,ESE,111,0.0,0.0,77,0.00,,,0.00,Wunderground v.1.15,2013-02-21 10:44:00,
2013-02-21 05:50:00,21.2,15.1,30.28,ESE,111,0.0,0.0,77,0.00,,,0.00,Wunderground v.1.15,2013-02-21 10:50:00,
2013-02-21 05:55:00,21.1,15.3,30.28,East,83,0.0,1.0,78,0.00,,,0.00,Wunderground v.1.15,2013-02-21 10:55:00,
2013-02-21 06:00:00,21.2,15.4,30.29,East,86,0.0,0.0,78,0.00,,,0.00,Wunderground v.1.15,2013-02-21 11:00:00,
2013-02-21 06:06:00,21.2,15.4,30.29,SE,146,0.0,0.0,78,0.00,,,0.00,Wunderground v.1.15,2013-02-21 11:06:00,
2013-02-21 06:11:00,21.2,15.4,30.29,SE,146,0.0,0.0,78,0.00,,,0.00,Wunderground v.1.15,2013-02-21 11:11:00,
2013-02-21 06:16:00,21.1,15.6,30.29,SE,146,0.0,0.0,79,0.00,,,0.00,Wunderground v.1.15,2013-02-21 11:16:00,
2013-02-21 06:21:00,21.1,15.6,30.29,SE,146,0.0,0.0,79,0.00,,,0.00,Wunderground v.1.15,2013-02-21 11:21:00,
2013-02-21 06:26:00,21.1,15.3,30.29,South,176,0.0,0.0,78,0.00,,,0.00,Wunderground v.1.15,2013-02-21 11:26:00,
2013-02-21 06:32:00,21.1,15.6,30.29,South,176,0.0,0.0,79,0.00,,,0.00,Wunderground v.1.15,2013-02-21 11:32:00,
2013-02-21 06:37:00,21.1,15.6,30.29,ESE,114,0.0,0.0,79,0.00,,,0.00,Wunderground v.1.15,2013-02-21 11:37:00,
2013-02-21 06:42:00,21.1,15.6,30.30,ESE,114,0.0,0.0,79,0.00,,,0.00,Wunderground v.1.15,2013-02-21 11:42:00,
2013-02-21 06:47:00,21.1,15.9,30.30,ESE,114,0.0,0.0,80,0.00,,,0.00,Wunderground v.1.15,2013-02-21 11:47:00,
2013-02-21 06:53:00,21.1,15.9,30.30,ESE,114,0.0,0.0,80,0.00,,,0.00,Wunderground v.1.15,2013-02-21 11:53:00,
2013-02-21 06:58:00,21.1,15.9,30.30,East,92,0.0,0.0,80,0.00,,,0.00,Wunderground v.1.15,2013-02-21 11:58:00,
2013-02-21 07:03:00,21.0,16.1,30.30,East,92,0.0,0.0,81,0.00,,,0.00,Wunderground v.1.15,2013-02-21 12:03:00,
2013-02-21 07:08:00,21.0,16.1,30.30,East,92,0.0,1.0,81,0.00,,,0.00,Wunderground v.1.15,2013-02-21 12:08:00,
2013-02-21 07:14:00,21.0,16.1,30.30,East,92,0.0,1.0,81,0.00,,,0.00,Wunderground v.1.15,2013-02-21 12:14:00,
2013-02-21 07:19:00,20.9,16.0,30.31,East,92,0.0,1.0,81,0.00,,,0.00,Wunderground v.1.15,2013-02-21 12:19:00,
2013-02-21 07:24:00,20.9,16.0,30.31,East,93,0.0,2.0,81,0.00,,,0.00,Wunderground v.1.15,2013-02-21 12:24:00,
2013-02-21 07:29:00,20.9,16.0,30.31,East,93,0.0,2.0,81,0.00,,,0.00,Wunderground v.1.15,2013-02-21 12:29:00,
2013-02-21 07:35:00,21.0,16.1,30.31,East,93,0.0,0.0,81,0.00,,,0.00,Wunderground v.1.15,2013-02-21 12:35:00,
2013-02-21 07:40:00,21.0,16.4,30.31,East,93,0.0,0.0,82,0.00,,,0.00,Wunderground v.1.15,2013-02-21 12:40:00,
2013-02-21 07:45:00,21.0,16.4,30.31,East,94,0.0,0.0,82,0.00,,,0.00,Wunderground v.1.15,2013-02-21 12:45:00,
2013-02-21 07:51:00,21.1,16.5,30.32,East,94,0.0,0.0,82,0.00,,,0.00,Wunderground v.1.15,2013-02-21 12:51:00,
2013-02-21 07:56:00,21.2,16.3,30.32,SE,131,0.0,1.0,81,0.00,,,0.00,Wunderground v.1.15,2013-02-21 12:56:00,
2013-02-21 08:02:00,21.3,16.7,30.32,SE,131,0.0,0.0,82,0.00,,,0.00,Wunderground v.1.15,2013-02-21 13:02:00,
2013-02-21 08:07:00,21.3,16.9,30.32,SE,131,0.0,0.0,83,0.00,,,0.00,Wunderground v.1.15,2013-02-21 13:07:00,
2013-02-21 08:12:00,21.4,17.0,30.32,SE,131,0.0,0.0,83,0.00,,,0.00,Wunderground v.1.15,2013-02-21 13:12:00,
2013-02-21 08:17:00,21.5,17.1,30.33,East,96,0.0,0.0,83,0.00,,,0.00,Wunderground v.1.15,2013-02-21 13:17:00,
2013-02-21 08:23:00,21.5,17.4,30.34,East,96,0.0,0.0,84,0.00,,,0.00,Wunderground v.1.15,2013-02-21 13:23:00,
2013-02-21 08:28:00,21.5,17.4,30.34,ESE,104,0.0,0.0,84,0.00,,,0.00,Wunderground v.1.15,2013-02-21 13:28:00,
2013-02-21 08:33:00,21.6,17.5,30.34,ESE,103,0.0,1.0,84,0.00,,,0.00,Wunderground v.1.15,2013-02-21 13:33:00,
2013-02-21 08:39:00,21.8,17.7,30.34,ESE,113,0.0,1.0,84,0.00,,,0.00,Wunderground v.1.15,2013-02-21 13:39:00,
2013-02-21 08:44:00,22.0,17.9,30.35,SSE,149,0.0,0.0,84,0.00,,,0.00,Wunderground v.1.15,2013-02-21 13:44:00,
2013-02-21 08:49:00,22.1,17.7,30.34,SSE,149,0.0,0.0,83,0.00,,,0.00,Wunderground v.1.15,2013-02-21 13:49:00,
2013-02-21 08:54:00,22.3,17.9,30.35,SSE,149,0.0,0.0,83,0.00,,,0.00,Wunderground v.1.15,2013-02-21 13:54:00,
2013-02-21 09:00:00,22.5,18.1,30.35,ESE,111,0.0,0.0,83,0.00,,,0.00,Wunderground v.1.15,2013-02-21 14:00:00,
2013-02-21 09:06:00,22.6,17.9,30.35,ESE,117,0.0,0.0,82,0.00,,,0.00,Wunderground v.1.15,2013-02-21 14:06:00,
2013-02-21 09:11:00,22.7,18.0,30.35,East,90,0.0,0.0,82,0.00,,,0.00,Wunderground v.1.15,2013-02-21 14:11:00,
2013-02-21 09:16:00,22.9,18.2,30.35,ESE,117,0.0,0.0,82,0.00,,,0.00,Wunderground v.1.15,2013-02-21 14:16:00,
2013-02-21 09:21:00,23.1,18.1,30.35,NNE,30,0.0,2.0,81,0.00,,,0.00,Wunderground v.1.15,2013-02-21 14:21:00,
2013-02-21 09:26:00,23.1,17.6,30.35,NNE,24,0.0,2.0,79,0.00,,,0.00,Wunderground v.1.15,2013-02-21 14:26:00,
2013-02-21 09:32:00,23.7,18.1,30.35,SSE,154,0.0,3.0,79,0.00,,,0.00,Wunderground v.1.15,2013-02-21 14:32:00,
2013-02-21 09:37:00,24.0,17.8,30.35,ESE,115,1.0,3.0,77,0.00,,,0.00,Wunderground v.1.15,2013-02-21 14:37:00,
2013-02-21 09:42:00,24.0,17.8,30.35,SSE,147,1.0,3.0,77,0.00,,,0.00,Wunderground v.1.15,2013-02-21 14:42:00,
2013-02-21 09:47:00,23.8,17.6,30.35,ENE,78,1.0,4.0,77,0.00,,,0.00,Wunderground v.1.15,2013-02-21 14:47:00,
2013-02-21 09:53:00,23.5,17.6,30.36,ESE,111,1.0,1.0,78,0.00,,,0.00,Wunderground v.1.15,2013-02-21 14:53:00,
2013-02-21 09:58:00,23.5,17.9,30.35,East,86,1.0,2.0,79,0.00,,,0.00,Wunderground v.1.15,2013-02-21 14:58:00,
2013-02-21 10:03:00,23.7,17.8,30.35,SE,142,0.0,2.0,78,0.00,,,0.00,Wunderground v.1.15,2013-02-21 15:03:00,
2013-02-21 10:09:00,24.1,17.6,30.35,ESE,113,0.0,2.0,76,0.00,,,0.00,Wunderground v.1.15,2013-02-21 15:09:00,
2013-02-21 10:14:00,24.6,17.8,30.34,SW,219,0.0,2.0,75,0.00,,,0.00,Wunderground v.1.15,2013-02-21 15:14:00,
2013-02-21 10:19:00,24.8,17.1,30.35,ENE,59,1.0,2.0,72,0.00,,,0.00,Wunderground v.1.15,2013-02-21 15:19:00,
2013-02-21 10:25:00,24.5,16.4,30.34,NNE,18,1.0,3.0,71,0.00,,,0.00,Wunderground v.1.15,2013-02-21 15:25:00,
2013-02-21 10:30:00,24.4,16.7,30.34,NNE,32,1.0,2.0,72,0.00,,,0.00,Wunderground v.1.15,2013-02-21 15:30:00,
2013-02-21 10:35:00,24.3,16.9,30.34,East,85,1.0,2.0,73,0.00,,,0.00,Wunderground v.1.15,2013-02-21 15:35:00,
2013-02-21 10:41:00,24.4,17.0,30.34,SSE,149,0.0,2.0,73,0.00,,,0.00,Wunderground v.1.15,2013-02-21 15:41:00,
2013-02-21 10:46:00,24.5,17.1,30.33,SSW,192,1.0,2.0,73,0.00,,,0.00,Wunderground v.1.15,2013-02-21 15:46:00,
2013-02-21 10:52:00,24.5,16.8,30.34,ESE,115,1.0,3.0,72,0.00,,,0.00,Wunderground v.1.15,2013-02-21 15:52:00,
2013-02-21 10:57:00,24.7,17.0,30.34,East,97,1.0,3.0,72,0.00,,,0.00,Wunderground v.1.15,2013-02-21 15:57:00,
2013-02-21 11:03:00,24.8,16.4,30.34,ESE,123,0.0,1.0,70,0.00,,,0.00,Wunderground v.1.15,2013-02-21 16:03:00,
2013-02-21 11:08:00,25.0,16.9,30.34,SE,132,0.0,3.0,71,0.00,,,0.00,Wunderground v.1.15,2013-02-21 16:08:00,
2013-02-21 11:14:00,24.7,17.0,30.34,East,98,1.0,1.0,72,0.00,,,0.00,Wunderground v.1.15,2013-02-21 16:14:00,
2013-02-21 11:19:00,24.7,17.3,30.35,SE,145,1.0,2.0,73,0.00,,,0.00,Wunderground v.1.15,2013-02-21 16:19:00,
2013-02-21 11:24:00,24.5,16.8,30.35,ESE,109,1.0,4.0,72,0.00,,,0.00,Wunderground v.1.15,2013-02-21 16:24:00,
2013-02-21 11:30:00,24.5,17.1,30.35,NE,54,1.0,1.0,73,0.00,,,0.00,Wunderground v.1.15,2013-02-21 16:30:00,
2013-02-21 11:35:00,24.6,17.2,30.35,NNE,24,0.0,1.0,73,0.00,,,0.00,Wunderground v.1.15,2013-02-21 16:35:00,
2013-02-21 11:40:00,24.6,17.5,30.35,NE,51,0.0,2.0,74,0.00,,,0.00,Wunderground v.1.15,2013-02-21 16:40:00,
2013-02-21 11:46:00,24.7,17.3,30.35,South,173,0.0,2.0,73,0.00,,,0.00,Wunderground v.1.15,2013-02-21 16:46:00,
2013-02-21 11:52:00,24.9,17.8,30.36,NNE,27,0.0,1.0,74,0.00,,,0.00,Wunderground v.1.15,2013-02-21 16:52:00,
2013-02-21 11:57:00,24.9,17.5,30.36,ENE,77,0.0,1.0,73,0.00,,,0.00,Wunderground v.1.15,2013-02-21 16:57:00,
2013-02-21 12:02:00,25.1,17.7,30.36,SSW,194,0.0,1.0,73,0.00,,,0.00,Wunderground v.1.15,2013-02-21 17:02:00,
2013-02-21 12:08:00,25.2,18.1,30.36,SSE,151,0.0,2.0,74,0.00,,,0.00,Wunderground v.1.15,2013-02-21 17:08:00,
2013-02-21 12:13:00,25.1,17.3,30.36,East,84,1.0,1.0,72,0.00,,,0.00,Wunderground v.1.15,2013-02-21 17:13:00,
2013-02-21 12:18:00,25.2,17.1,30.35,East,100,1.0,2.0,71,0.00,,,0.00,Wunderground v.1.15,2013-02-21 17:18:00,
2013-02-21 12:24:00,25.3,17.2,30.35,South,177,1.0,5.0,71,0.00,,,0.00,Wunderground v.1.15,2013-02-21 17:24:00,
2013-02-21 12:29:00,25.5,16.7,30.36,NE,38,1.0,5.0,69,0.00,,,0.00,Wunderground v.1.15,2013-02-21 17:29:00,
2013-02-21 12:34:00,25.6,17.2,30.36,NNE,32,1.0,3.0,70,0.00,,,0.00,Wunderground v.1.15,2013-02-21 17:34:00,
2013-02-21 12:39:00,25.3,16.9,30.36,South,174,1.0,3.0,70,0.00,,,0.00,Wunderground v.1.15,2013-02-21 17:39:00,
2013-02-21 12:45:00,25.3,16.9,30.35,ESE,121,1.0,3.0,70,0.00,,,0.00,Wunderground v.1.15,2013-02-21 17:45:00,
2013-02-21 12:50:00,25.5,17.1,30.35,SSE,155,1.0,1.0,70,0.00,,,0.00,Wunderground v.1.15,2013-02-21 17:50:00,
2013-02-21 12:55:00,25.7,17.3,30.35,SE,139,0.0,2.0,70,0.00,,,0.00,Wunderground v.1.15,2013-02-21 17:55:00,
2013-02-21 13:00:00,25.5,17.1,30.35,North,9,1.0,1.0,70,0.00,,,0.00,Wunderground v.1.15,2013-02-21 18:00:00,
2013-02-21 13:06:00,25.6,17.2,30.35,NNE,32,0.0,2.0,70,0.00,,,0.00,Wunderground v.1.15,2013-02-21 18:06:00,
2013-02-21 13:11:00,25.6,17.2,30.35,SE,138,1.0,1.0,70,0.00,,,0.00,Wunderground v.1.15,2013-02-21 18:11:00,
2013-02-21 13:16:00,25.5,16.7,30.35,North,5,1.0,3.0,69,0.00,,,0.00,Wunderground v.1.15,2013-02-21 18:16:00,
2013-02-21 13:21:00,25.4,17.3,30.35,ESE,111,1.0,1.0,71,0.00,,,0.00,Wunderground v.1.15,2013-02-21 18:21:00,
2013-02-21 13:26:00,25.4,17.0,30.34,SE,139,0.0,2.0,70,0.00,,,0.00,Wunderground v.1.15,2013-02-21 18:26:00,
2013-02-21 13:32:00,25.6,16.5,30.34,ENE,71,0.0,4.0,68,0.00,,,0.00,Wunderground v.1.15,2013-02-21 18:32:00,
2013-02-21 13:37:00,25.6,16.8,30.35,NNE,30,1.0,4.0,69,0.00,,,0.00,Wunderground v.1.15,2013-02-21 18:37:00,
2013-02-21 13:42:00,25.5,16.1,30.35,West,281,1.0,3.0,67,0.00,,,0.00,Wunderground v.1.15,2013-02-21 18:42:00,
2013-02-21 13:47:00,25.2,15.1,30.35,North,9,1.0,3.0,65,0.00,,,0.00,Wunderground v.1.15,2013-02-21 18:47:00,
2013-02-21 13:52:00,25.4,15.3,30.35,North,10,1.0,2.0,65,0.00,,,0.00,Wunderground v.1.15,2013-02-21 18:52:00,
2013-02-21 13:57:00,25.6,16.2,30.35,ESE,106,1.0,2.0,67,0.00,,,0.00,Wunderground v.1.15,2013-02-21 18:57:00,
2013-02-21 14:03:00,25.8,15.6,30.35,South,174,0.0,2.0,65,0.00,,,0.00,Wunderground v.1.15,2013-02-21 19:03:00,
2013-02-21 14:08:00,25.8,16.0,30.35,SE,144,0.0,2.0,66,0.00,,,0.00,Wunderground v.1.15,2013-02-21 19:08:00,
2013-02-21 14:13:00,25.9,17.1,30.35,South,180,0.0,1.0,69,0.00,,,0.00,Wunderground v.1.15,2013-02-21 19:13:00,
2013-02-21 14:18:00,25.9,16.1,30.35,East,87,1.0,3.0,66,0.00,,,0.00,Wunderground v.1.15,2013-02-21 19:18:00,
2013-02-21 14:23:00,25.8,16.0,30.35,NNE,15,1.0,4.0,66,0.00,,,0.00,Wunderground v.1.15,2013-02-21 19:23:00,
2013-02-21 14:29:00,25.6,16.2,30.36,ENE,71,1.0,4.0,67,0.00,,,0.00,Wunderground v.1.15,2013-02-21 19:29:00,
2013-02-21 14:34:00,25.5,15.4,30.36,NE,53,1.0,5.0,65,0.00,,,0.00,Wunderground v.1.15,2013-02-21 19:34:00,
2013-02-21 14:39:00,25.7,16.6,30.35,SE,130,0.0,5.0,68,0.00,,,0.00,Wunderground v.1.15,2013-02-21 19:39:00,
2013-02-21 14:44:00,25.9,16.1,30.35,SE,142,0.0,3.0,66,0.00,,,0.00,Wunderground v.1.15,2013-02-21 19:44:00,
2013-02-21 14:50:00,26.0,15.8,30.35,East,88,0.0,1.0,65,0.00,,,0.00,Wunderground v.1.15,2013-02-21 19:50:00,
2013-02-21 14:55:00,26.1,15.6,30.35,NW,315,0.0,1.0,64,0.00,,,0.00,Wunderground v.1.15,2013-02-21 19:55:00,
2013-02-21 15:00:00,26.0,15.5,30.35,NE,35,0.0,0.0,64,0.00,,,0.00,Wunderground v.1.15,2013-02-21 20:00:00,
2013-02-21 15:06:00,25.8,15.6,30.34,SSE,163,1.0,4.0,65,0.00,,,0.00,Wunderground v.1.15,2013-02-21 20:06:00,
2013-02-21 15:11:00,25.9,15.7,30.35,East,88,1.0,1.0,65,0.00,,,0.00,Wunderground v.1.15,2013-02-21 20:11:00,
2013-02-21 15:17:00,26.0,15.8,30.35,NNE,33,1.0,1.0,65,0.00,,,0.00,Wunderground v.1.15,2013-02-21 20:17:00,
2013-02-21 15:22:00,26.0,16.5,30.35,ESE,112,0.0,0.0,67,0.00,,,0.00,Wunderground v.1.15,2013-02-21 20:22:00,
2013-02-21 15:27:00,26.0,15.8,30.35,NNE,24,0.0,1.0,65,0.00,,,0.00,Wunderground v.1.15,2013-02-21 20:27:00,
2013-02-21 15:33:00,25.9,16.1,30.34,East,89,0.0,0.0,66,0.00,,,0.00,Wunderground v.1.15,2013-02-21 20:33:00,
2013-02-21 15:38:00,25.9,16.4,30.34,SSE,151,0.0,2.0,67,0.00,,,0.00,Wunderground v.1.15,2013-02-21 20:38:00,
2013-02-21 15:44:00,25.9,16.1,30.34,East,82,0.0,1.0,66,0.00,,,0.00,Wunderground v.1.15,2013-02-21 20:44:00,
2013-02-21 15:49:00,25.6,15.5,30.34,East,79,1.0,3.0,65,0.00,,,0.01,Wunderground v.1.15,2013-02-21 20:49:00,
2013-02-21 15:54:00,25.4,15.3,30.33,East,96,1.0,1.0,65,0.00,,,0.01,Wunderground v.1.15,2013-02-21 20:54:00,
2013-02-21 15:59:00,25.3,15.5,30.34,NNE,19,0.0,2.0,66,0.00,,,0.01,Wunderground v.1.15,2013-02-21 20:59:00,
2013-02-21 16:05:00,25.2,15.1,30.34,WNW,292,0.0,2.0,65,0.00,,,0.01,Wunderground v.1.15,2013-02-21 21:05:00,
2013-02-21 16:10:00,25.2,15.4,30.33,East,90,1.0,1.0,66,0.00,,,0.01,Wunderground v.1.15,2013-02-21 21:10:00,
2013-02-21 16:16:00,25.2,15.1,30.33,South,180,1.0,3.0,65,0.00,,,0.01,Wunderground v.1.15,2013-02-21 21:16:00,
2013-02-21 16:22:00,24.9,14.8,30.33,West,273,1.0,2.0,65,0.00,,,0.01,Wunderground v.1.15,2013-02-21 21:22:00,
2013-02-21 16:28:00,24.9,15.5,30.33,ESE,109,0.0,2.0,67,0.00,,,0.01,Wunderground v.1.15,2013-02-21 21:28:00,
2013-02-21 16:33:00,24.9,15.1,30.33,ESE,109,0.0,0.0,66,0.00,,,0.01,Wunderground v.1.15,2013-02-21 21:33:00,
2013-02-21 16:38:00,25.0,15.2,30.34,ESE,109,0.0,1.0,66,0.00,,,0.01,Wunderground v.1.15,2013-02-21 21:38:00,
2013-02-21 16:43:00,25.0,14.9,30.35,SE,140,0.0,0.0,65,0.00,,,0.01,Wunderground v.1.15,2013-02-21 21:43:00,
2013-02-21 16:48:00,25.0,14.9,30.35,East,92,0.0,2.0,65,0.00,,,0.01,Wunderground v.1.15,2013-02-21 21:48:00,
2013-02-21 16:54:00,25.0,15.6,30.36,East,92,0.0,1.0,67,0.00,,,0.01,Wunderground v.1.15,2013-02-21 21:54:00,
2013-02-21 16:59:00,25.0,14.9,30.35,East,92,0.0,1.0,65,0.00,,,0.01,Wunderground v.1.15,2013-02-21 21:59:00,
2013-02-21 17:05:00,25.0,15.2,30.35,East,94,0.0,0.0,66,0.00,,,0.01,Wunderground v.1.15,2013-02-21 22:05:00,
2013-02-21 17:10:00,25.1,15.3,30.35,East,94,0.0,0.0,66,0.00,,,0.01,Wunderground v.1.15,2013-02-21 22:10:00,
2013-02-21 17:15:00,25.0,14.9,30.36,East,94,0.0,0.0,65,0.00,,,0.01,Wunderground v.1.15,2013-02-21 22:15:00,
2013-02-21 17:21:00,24.9,15.1,30.37,East,94,0.0,0.0,66,0.00,,,0.01,Wunderground v.1.15,2013-02-21 22:21:00,
2013-02-21 17:26:00,24.8,15.4,30.37,East,94,0.0,0.0,67,0.00,,,0.01,Wunderground v.1.15,2013-02-21 22:26:00,
2013-02-21 17:31:00,24.7,15.3,30.37,NE,48,0.0,0.0,67,0.00,,,0.01,Wunderground v.1.15,2013-02-21 22:31:00,
2013-02-21 17:37:00,24.7,15.6,30.38,NE,48,0.0,0.0,68,0.00,,,0.01,Wunderground v.1.15,2013-02-21 22:37:00,
2013-02-21 17:42:00,24.6,16.2,30.37,NE,48,0.0,0.0,70,0.00,,,0.01,Wunderground v.1.15,2013-02-21 22:42:00,
2013-02-21 17:47:00,24.3,15.6,30.38,NE,48,0.0,0.0,69,0.00,,,0.01,Wunderground v.1.15,2013-02-21 22:47:00,
2013-02-21 17:53:00,24.1,16.1,30.38,NE,48,0.0,0.0,71,0.00,,,0.01,Wunderground v.1.15,2013-02-21 22:53:00,
2013-02-21 17:58:00,23.9,15.5,30.38,NE,48,0.0,0.0,70,0.00,,,0.01,Wunderground v.1.15,2013-02-21 22:58:00,
2013-02-21 18:04:00,23.7,15.7,30.38,NE,48,0.0,0.0,71,0.00,,,0.01,Wunderground v.1.15,2013-02-21 23:04:00,
2013-02-21 18:09:00,23.5,15.5,30.38,NE,48,0.0,0.0,71,0.00,,,0.01,Wunderground v.1.15,2013-02-21 23:09:00,
2013-02-21 18:14:00,23.3,15.9,30.38,NE,48,0.0,0.0,73,0.00,,,0.01,Wunderground v.1.15,2013-02-21 23:14:00,
2013-02-21 18:20:00,23.0,15.9,30.39,NE,48,0.0,0.0,74,0.00,,,0.01,Wunderground v.1.15,2013-02-21 23:20:00,
2013-02-21 18:25:00,22.7,15.7,30.39,NE,48,0.0,0.0,74,0.00,,,0.01,Wunderground v.1.15,2013-02-21 23:25:00,
2013-02-21 18:30:00,22.5,15.8,30.39,NE,48,0.0,0.0,75,0.00,,,0.01,Wunderground v.1.15,2013-02-21 23:30:00,
2013-02-21 18:36:00,22.2,15.8,30.40,NE,48,0.0,0.0,76,0.00,,,0.01,Wunderground v.1.15,2013-02-21 23:36:00,
2013-02-21 18:42:00,22.0,15.9,30.40,NE,48,0.0,0.0,77,0.00,,,0.01,Wunderground v.1.15,2013-02-21 23:42:00,
2013-02-21 18:47:00,21.9,15.5,30.40,NE,48,0.0,0.0,76,0.00,,,0.01,Wunderground v.1.15,2013-02-21 23:47:00,
2013-02-21 18:52:00,21.7,15.9,30.41,NE,48,0.0,0.0,78,0.00,,,0.01,Wunderground v.1.15,2013-02-21 23:52:00,
2013-02-21 18:58:00,21.5,16.0,30.40,NE,48,0.0,0.0,79,0.00,,,0.01,Wunderground v.1.15,2013-02-21 23:58:00,
2013-02-21 19:03:00,21.3,15.8,30.40,NE,48,0.0,0.0,79,0.00,,,0.01,Wunderground v.1.15,2013-02-22 00:03:00,
2013-02-21 19:08:00,21.1,15.6,30.40,NE,48,0.0,0.0,79,0.00,,,0.01,Wunderground v.1.15,2013-02-22 00:08:00,
2013-02-21 19:14:00,20.9,15.4,30.40,NE,48,0.0,0.0,79,0.00,,,0.01,Wunderground v.1.15,2013-02-22 00:14:00,
2013-02-21 19:19:00,20.8,15.6,30.40,NE,48,0.0,0.0,80,0.00,,,0.01,Wunderground v.1.15,2013-02-22 00:19:00,
2013-02-21 19:24:00,20.6,15.7,30.39,NE,48,0.0,0.0,81,0.00,,,0.01,Wunderground v.1.15,2013-02-22 00:24:00,
2013-02-21 19:30:00,20.5,15.3,30.39,NE,48,0.0,0.0,80,0.00,,,0.01,Wunderground v.1.15,2013-02-22 00:30:00,
2013-02-21 19:35:00,20.3,15.4,30.39,NE,48,0.0,0.0,81,0.00,,,0.01,Wunderground v.1.15,2013-02-22 00:35:00,
2013-02-21 19:40:00,20.3,15.4,30.40,NE,48,0.0,0.0,81,0.00,,,0.01,Wunderground v.1.15,2013-02-22 00:40:00,
2013-02-21 19:46:00,20.2,15.3,30.40,NE,48,0.0,0.0,81,0.00,,,0.01,Wunderground v.1.15,2013-02-22 00:46:00,
2013-02-21 19:51:00,20.1,15.5,30.40,NE,48,0.0,0.0,82,0.00,,,0.01,Wunderground v.1.15,2013-02-22 00:51:00,
2013-02-21 19:57:00,20.1,15.5,30.41,NE,48,0.0,0.0,82,0.00,,,0.01,Wunderground v.1.15,2013-02-22 00:57:00,
2013-02-21 20:02:00,20.1,15.5,30.41,NE,48,0.0,0.0,82,0.00,,,0.01,Wunderground v.1.15,2013-02-22 01:02:00,
2013-02-21 20:08:00,20.0,15.4,30.41,NE,48,0.0,0.0,82,0.00,,,0.01,Wunderground v.1.15,2013-02-22 01:08:00,
2013-02-21 20:13:00,19.9,15.3,30.41,NE,48,0.0,0.0,82,0.00,,,0.01,Wunderground v.1.15,2013-02-22 01:13:00,
2013-02-21 20:18:00,19.8,15.2,30.40,NE,48,0.0,0.0,82,0.00,,,0.01,Wunderground v.1.15,2013-02-22 01:18:00,
2013-02-21 20:24:00,19.7,15.4,30.40,NE,48,0.0,0.0,83,0.00,,,0.01,Wunderground v.1.15,2013-02-22 01:24:00,
2013-02-21 20:29:00,19.7,15.1,30.40,NE,48,0.0,0.0,82,0.00,,,0.01,Wunderground v.1.15,2013-02-22 01:29:00,
2013-02-21 20:34:00,19.6,15.3,30.40,NE,48,0.0,0.0,83,0.00,,,0.01,Wunderground v.1.15,2013-02-22 01:34:00,
2013-02-21 20:39:00,19.5,15.2,30.40,NE,48,0.0,0.0,83,0.00,,,0.01,Wunderground v.1.15,2013-02-22 01:39:00,
2013-02-21 20:45:00,19.4,15.1,30.39,NE,48,0.0,0.0,83,0.00,,,0.01,Wunderground v.1.15,2013-02-22 01:45:00,
2013-02-21 20:50:00,19.2,14.9,30.39,NE,48,0.0,0.0,83,0.00,,,0.01,Wunderground v.1.15,2013-02-22 01:50:00,
2013-02-21 20:55:00,19.1,14.8,30.39,NE,48,0.0,0.0,83,0.00,,,0.01,Wunderground v.1.15,2013-02-22 01:55:00,
2013-02-21 21:00:00,19.0,15.0,30.39,NE,48,0.0,0.0,84,0.00,,,0.01,Wunderground v.1.15,2013-02-22 02:00:00,
2013-02-21 21:06:00,18.9,14.9,30.39,NE,48,0.0,0.0,84,0.00,,,0.01,Wunderground v.1.15,2013-02-22 02:06:00,
2013-02-21 21:11:00,18.9,14.9,30.38,NE,48,0.0,0.0,84,0.00,,,0.01,Wunderground v.1.15,2013-02-22 02:11:00,
2013-02-21 21:16:00,18.9,14.9,30.37,NE,48,0.0,0.0,84,0.00,,,0.01,Wunderground v.1.15,2013-02-22 02:16:00,
2013-02-21 21:21:00,19.2,15.2,30.37,NE,48,0.0,0.0,84,0.00,,,0.01,Wunderground v.1.15,2013-02-22 02:21:00,
2013-02-21 21:27:00,19.4,15.1,30.37,NE,48,0.0,0.0,83,0.00,,,0.01,Wunderground v.1.15,2013-02-22 02:27:00,
2013-02-21 21:32:00,19.7,15.4,30.36,NE,48,0.0,0.0,83,0.00,,,0.01,Wunderground v.1.15,2013-02-22 02:32:00,
2013-02-21 21:37:00,20.0,15.4,30.36,NE,48,0.0,0.0,82,0.00,,,0.01,Wunderground v.1.15,2013-02-22 02:37:00,
2013-02-21 21:42:00,20.4,15.5,30.36,NE,34,0.0,0.0,81,0.00,,,0.01,Wunderground v.1.15,2013-02-22 02:42:00,
2013-02-21 21:48:00,20.8,15.6,30.36,East,90,0.0,0.0,80,0.00,,,0.01,Wunderground v.1.15,2013-02-22 02:48:00,
2013-02-21 21:54:00,20.9,15.4,30.36,East,90,0.0,0.0,79,0.00,,,0.01,Wunderground v.1.15,2013-02-22 02:54:00,
2013-02-21 21:59:00,20.9,15.7,30.36,East,90,0.0,0.0,80,0.00,,,0.01,Wunderground v.1.15,2013-02-22 02:59:00,
2013-02-21 22:05:00,20.8,15.6,30.36,East,90,0.0,0.0,80,0.00,,,0.01,Wunderground v.1.15,2013-02-22 03:05:00,
2013-02-21 22:10:00,20.7,15.2,30.35,East,90,0.0,0.0,79,0.00,,,0.01,Wunderground v.1.15,2013-02-22 03:10:00,
2013-02-21 22:15:00,20.8,15.3,30.35,ESE,120,0.0,2.0,79,0.00,,,0.01,Wunderground v.1.15,2013-02-22 03:15:00,
2013-02-21 22:21:00,20.9,15.1,30.35,ENE,67,0.0,0.0,78,0.00,,,0.01,Wunderground v.1.15,2013-02-22 03:21:00,
2013-02-21 22:27:00,21.1,15.3,30.35,NNE,17,0.0,1.0,78,0.00,,,0.01,Wunderground v.1.15,2013-02-22 03:27:00,
2013-02-21 22:32:00,21.2,15.4,30.36,NNE,24,0.0,1.0,78,0.00,,,0.01,Wunderground v.1.15,2013-02-22 03:32:00,
2013-02-21 22:37:00,21.2,15.4,30.35,North,355,0.0,1.0,78,0.00,,,0.01,Wunderground v.1.15,2013-02-22 03:37:00,
2013-02-21 22:43:00,21.3,15.2,30.35,ESE,103,0.0,0.0,77,0.00,,,0.01,Wunderground v.1.15,2013-02-22 03:43:00,
2013-02-21 22:48:00,21.3,15.2,30.34,ESE,103,0.0,0.0,77,0.00,,,0.01,Wunderground v.1.15,2013-02-22 03:48:00,
2013-02-21 22:53:00,21.3,15.2,30.34,ESE,103,0.0,0.0,77,0.00,,,0.01,Wunderground v.1.15,2013-02-22 03:53:00,
2013-02-21 22:59:00,21.3,15.2,30.34,North,5,0.0,0.0,77,0.00,,,0.01,Wunderground v.1.15,2013-02-22 03:59:00,
2013-02-21 23:04:00,21.4,15.3,30.34,NE,45,0.0,0.0,77,0.00,,,0.01,Wunderground v.1.15,2013-02-22 04:04:00,
2013-02-21 23:09:00,21.5,15.4,30.33,East,86,0.0,0.0,77,0.00,,,0.01,Wunderground v.1.15,2013-02-22 04:09:00,
2013-02-21 23:15:00,21.5,15.4,30.33,East,80,0.0,0.0,77,0.00,,,0.01,Wunderground v.1.15,2013-02-22 04:15:00,
2013-02-21 23:20:00,21.5,15.4,30.33,East,80,0.0,0.0,77,0.00,,,0.01,Wunderground v.1.15,2013-02-22 04:20:00,
2013-02-21 23:25:00,21.6,15.5,30.32,East,80,0.0,0.0,77,0.00,,,0.01,Wunderground v.1.15,2013-02-22 04:25:00,
2013-02-21 23:30:00,21.6,15.5,30.32,East,80,0.0,0.0,77,0.00,,,0.01,Wunderground v.1.15,2013-02-22 04:30:00,
2013-02-21 23:36:00,21.6,15.5,30.32,ESE,104,0.0,0.0,77,0.00,,,0.01,Wunderground v.1.15,2013-02-22 04:36:00,
2013-02-21 23:42:00,21.7,15.3,30.33,SE,143,0.0,0.0,76,0.00,,,0.01,Wunderground v.1.15,2013-02-22 04:42:00,
2013-02-21 23:47:00,21.7,15.3,30.33,SE,143,0.0,0.0,76,0.00,,,0.01,Wunderground v.1.15,2013-02-22 04:47:00,
2013-02-21 23:52:00,21.7,15.6,30.33,SE,143,0.0,0.0,77,0.00,,,0.01,Wunderground v.1.15,2013-02-22 04:52:00,
2013-02-21 23:57:00,21.7,15.3,30.33,SE,143,0.0,0.0,76,0.00,,,0.01,Wunderground v.1.15,2013-02-22 04:57:00,